Montpelier, VT

9:20 AM EST on December 11, 2019 (GMT -0500)
Knapp State

Weather History for KMPV - July, 2019

Change the Weather History Date:

Saturday, July 20, 2019

  Actual Average Record
Temperature  
Mean Temperature 75 °F 67 °F  
Max Temperature 86 °F 79 °F 92 °F (1991)
Min Temperature 64 °F 56 °F 43 °F (2018)
Degree Days  
Heating Degree Days 0 1  
Month to date heating degree days 6 25  
Since 1 June heating degree days 150 146  
Since 1 July heating degree days 6 25  
Cooling Degree Days 10 3  
Month to date cooling degree days 73 61  
Year to date cooling degree days 93 124  
Since 1 June cooling degree days 92 114  
Growing Degree Days 28 (Base 50)    
Moisture  
Dew Point 69 °F    
Average Humidity 77    
Maximum Humidity 93    
Minimum Humidity 61    
Precipitation  
Precipitation 0.00 in 0.13 in 2.05 in (2008)
Month to date precipitation 1.82 2.36  
Year to date precipitation 26.75 19.07  
Sea Level Pressure  
Sea Level Pressure 29.81 in    
Wind  
Wind Speed 7 mph (SW)    
Max Wind Speed 14 mph    
Max Gust Speed 19 mph    
Visibility 9 miles    
Events Rain , Thunderstorm    
T = Trace of Precipitation, MM = Missing Value Source: NWS Daily Summary

Daily Weather History Graph

Daily Weather History Graph

Search for Another Location

Airport or City:

Astronomy

Jul. 20, 2019 Rise Set
Actual Time 5:25 AM EDT 8:27 PM EDT
Civil Twilight 4:50 AM EDT 9:02 PM EDT
Nautical Twilight 4:06 AM EDT 9:46 PM EDT
Astronomical Twilight 3:12 AM EDT 10:38 PM EDT
Moon 10:46 PM EDT (7/20) 8:51 AM EDT (7/20)
Length of Visible Light 16h 11m
Length of Day
15h 02m
Waning Gibbous, 87% of the Moon is Illuminated
Jul 20
Waning Gibbous
Jul 24
Last Quarter
Jul 31
New
Aug 7
First Quarter
Aug 15
Full

Hourly Weather History & Observations

Time (EDT) Temp. Heat Index Dew Point Humidity Pressure Visibility Wind Dir Wind Speed Gust Speed Precip Events Conditions
12:51 AM 73.0 °F - 69.1 °F 87% 29.81 in 10.0 mi Calm Calm - N/A   Clear
1:51 AM 70.0 °F - 68.0 °F 93% 29.82 in 10.0 mi Calm Calm - N/A   Clear
2:51 AM 70.0 °F - 68.0 °F 93% 29.82 in 10.0 mi Calm Calm - N/A   Clear
3:51 AM 68.0 °F - 66.0 °F 93% 29.81 in 10.0 mi Calm Calm - N/A   Clear
4:51 AM 69.1 °F - 66.9 °F 93% 29.82 in 10.0 mi SSW 3.5 mph - N/A   Clear
5:51 AM 68.0 °F - 66.9 °F 96% 29.84 in 10.0 mi South 3.5 mph - N/A   Partly Cloudy
6:51 AM 72.0 °F - 69.1 °F 91% 29.86 in 10.0 mi South 3.5 mph - N/A   Clear
7:51 AM 75.9 °F - 70.0 °F 82% 29.85 in 10.0 mi NNW 3.5 mph - N/A   Clear
8:51 AM 79.0 °F - 71.1 °F 77% 29.86 in 10.0 mi NW 3.5 mph - N/A   Clear
9:51 AM 81.0 °F 84.4 °F 70.0 °F 69% 29.84 in 10.0 mi Variable 3.5 mph - N/A   Clear
10:51 AM 82.9 °F 85.8 °F 68.0 °F 60% 29.85 in 10.0 mi Variable 5.8 mph - N/A   Clear
11:51 AM 86.0 °F 89.4 °F 68.0 °F 55% 29.84 in 10.0 mi NW 5.8 mph - N/A   Partly Cloudy
12:51 PM 87.1 °F 88.9 °F 64.9 °F 48% 29.83 in 10.0 mi WNW 9.2 mph - N/A   Clear
1:51 PM 89.1 °F 89.3 °F 62.1 °F 40% 29.80 in 10.0 mi SSW 8.1 mph - N/A   Clear
2:51 PM 89.1 °F 91.3 °F 66.0 °F 46% 29.79 in 10.0 mi SSW 4.6 mph - N/A   Clear
3:51 PM 89.1 °F 90.3 °F 64.0 °F 43% 29.78 in 10.0 mi WSW 8.1 mph - N/A   Clear
4:51 PM 89.1 °F 93.7 °F 69.1 °F 52% 29.75 in 10.0 mi SSW 9.2 mph - N/A   Clear
5:51 PM 87.1 °F 92.8 °F 71.1 °F 59% 29.76 in 10.0 mi SW 5.8 mph - N/A   Partly Cloudy
6:51 PM 84.9 °F 90.7 °F 72.0 °F 65% 29.77 in 10.0 mi SW 6.9 mph - N/A   Clear
7:15 PM 84.9 °F 91.4 °F 73.0 °F 67% 29.80 in 10.0 mi SSW 4.6 mph - N/A Thunderstorm Scattered Clouds
7:28 PM 84.0 °F 90.2 °F 73.0 °F 69% 29.80 in 10.0 mi NW 4.6 mph - N/A Thunderstorm Thunderstorm
7:56 PM 70.0 °F - 68.0 °F 93% 29.84 in 1.0 mi Variable 6.9 mph 36.8 mph 0.12 in Rain Heavy Rain
7:58 PM 71.1 °F - 68.0 °F 90% 29.84 in 1.2 mi NNW 8.1 mph 26.5 mph 0.14 in Rain , Thunderstorm Heavy Thunderstorms and Rain
8:01 PM 70.0 °F - 68.0 °F 93% 29.84 in 2.0 mi NNE 8.1 mph - 0.23 in Rain , Thunderstorm Heavy Thunderstorms and Rain
8:11 PM 73.9 °F - 69.1 °F 85% 29.82 in 3.0 mi NNW 9.2 mph - 0.32 in Rain , Thunderstorm Thunderstorms and Rain
8:22 PM 71.1 °F - 69.1 °F 93% 29.82 in 8.0 mi South 8.1 mph - 0.35 in Rain , Thunderstorm Light Thunderstorms and Rain
8:35 PM 71.1 °F - 69.1 °F 93% 29.83 in 10.0 mi Variable 3.5 mph - 0.37 in Rain , Thunderstorm Light Rain
8:42 PM 71.1 °F - 69.1 °F 93% 29.82 in 10.0 mi SSE 6.9 mph - 0.37 in   Mostly Cloudy
8:51 PM 70.0 °F - 69.1 °F 97% 29.80 in 10.0 mi SSW 9.2 mph - 0.37 in   Mostly Cloudy
9:04 PM 71.1 °F - 69.1 °F 93% 29.81 in 10.0 mi SW 10.4 mph - N/A Thunderstorm Partly Cloudy
9:19 PM 71.1 °F - 69.1 °F 93% 29.80 in 10.0 mi SSW 5.8 mph - N/A   Clear
9:51 PM 71.1 °F - 70.0 °F 96% 29.78 in 10.0 mi NE 5.8 mph - N/A   Clear
10:51 PM 70.0 °F - 69.1 °F 97% 29.78 in 10.0 mi SSE 4.6 mph - N/A   Clear
11:51 PM 70.0 °F - 70.0 °F 100% 29.77 in 10.0 mi Calm Calm - N/A   Scattered Clouds